Location: *
(28.3744°N, 81.5492°W)
Time: 03:33:00
(UTC+00:00)

Cosmos 2285 Rocket - Pass Details

Date: 15 June 2025
Orbit: 969 x 999 km, 74.0° (Epoch: 11 July)

Event Time Altitude Azimuth Distance (km) Brightness Sun altitude
Exits shadow 09:04:54 24° 226° (SW) 1,876 4.9 -16.3°
Maximum altitude 09:08:24 49° 288° (WNW) 1,240 4.3 -15.7°
Drops below altitude 10° 09:14:30 10° 3° (N) 2,727 6.9 -14.6°
Sets 09:17:09 0° 9° (N) 3,681 7.8 -14.2°
